Location: Newark
(19.2128°S, 49.7858°W)
Time: 12:35:48
(UTC+00:00)

Envisat - Pass Details

Date: 03 September 2019
Orbit: 764 x 766 km, 98.1° (Epoch: 17 September)

Event Time Altitude Azimuth Distance (km) Brightness Sun altitude
Rises 22:55:58 0° 187° (S) 3,251 6.3 -25.4°
Reaches altitude 10° 22:58:38 10° 199° (SSW) 2,319 5.7 -26.0°
Maximum altitude 23:02:46 25° 253° (WSW) 1,508 5.1 -27.0°
Drops below altitude 10° 23:06:52 10° 308° (NW) 2,299 6.1 -28.0°
Sets 23:09:30 0° 321° (NW) 3,218 6.7 -28.6°
